Abbeville, LA

6:35 PM CDT on June 22, 2017 (GMT -0500)
Abbeville

Weather History for KIYA - August, 2013

Change the Weather History Date:

Friday, August 2, 2013

  Actual Average (KARA) Record (KARA)
Temperature  
Mean Temperature 87 °F -  
Max Temperature 96 °F 89 °F 100 °F (2010)
Min Temperature 78 °F 72 °F 67 °F (1949)
Cooling Degree Days 22    
Growing Degree Days 37 (Base 50)    
Moisture  
Dew Point 73 °F    
Average Humidity 67    
Maximum Humidity 92    
Minimum Humidity 37    
Precipitation  
Precipitation 0.00 in - - ()
Sea Level Pressure  
Sea Level Pressure 29.97 in    
Wind  
Wind Speed 2 mph (WSW)    
Max Wind Speed 15 mph    
Max Gust Speed 18 mph    
Visibility 10 miles    
Events Rain    
Averages and records for this station are not official NWS values.
T = Trace of Precipitation, MM = Missing Value Source: NWS Daily Summary

Daily Weather History Graph

Daily Weather History Graph

Search for Another Location

Airport or City:

Trip Planner

Search our weather history database for the weather conditions in past years. The results will help you decide how hot, cold, wet, or windy it might be!

Date:

Astronomy

Aug. 02, 2013 Rise Set
Actual Time 6:28 AM CDT 8:00 PM CDT
Civil Twilight 6:02 AM CDT 8:26 PM CDT
Nautical Twilight 5:31 AM CDT 8:57 PM CDT
Astronomical Twilight 4:58 AM CDT 9:29 PM CDT
Moon 2:52 AM CDT (8/2) 4:55 PM CDT (8/2)
Length of Visible Light 14h 24m
Length of Day
13h 32m
Waning Crescent, 15% of the Moon is Illuminated
Aug 2
Waning Crescent
Aug 6
New
Aug 14
First Quarter
Aug 20
Full
Aug 28
Last Quarter

Hourly Weather History & Observations

Time (CDT) Temp. Heat Index Dew Point Humidity Pressure Visibility Wind Dir Wind Speed Gust Speed Precip Events Conditions
12:15 AM 81.7 °F 89.5 °F 77.0 °F 86% 29.97 in 10.0 mi Calm Calm - N/A   Mostly Cloudy
12:35 AM 82.0 °F 90.5 °F 77.4 °F 86% 29.97 in 10.0 mi Calm Calm - N/A   Overcast
12:55 AM 82.4 °F 91.2 °F 77.4 °F 85% 29.96 in 10.0 mi Calm Calm - N/A   Overcast
1:15 AM 83.3 °F 91.8 °F 76.3 °F 79% 29.96 in 10.0 mi Calm Calm - N/A   Mostly Cloudy
1:35 AM 83.3 °F 92.1 °F 76.5 °F 80% 29.95 in 10.0 mi Calm Calm - N/A   Mostly Cloudy
1:55 AM 82.8 °F 91.3 °F 76.8 °F 82% 29.95 in 10.0 mi WSW 3.5 mph - N/A   Overcast
2:15 AM 82.6 °F 89.9 °F 75.6 °F 79% 29.94 in 10.0 mi West 4.6 mph - N/A   Scattered Clouds
2:35 AM 82.8 °F 90.1 °F 75.2 °F 78% 29.94 in 10.0 mi WSW 4.6 mph - N/A   Scattered Clouds
2:55 AM 82.8 °F 89.8 °F 74.8 °F 77% 29.94 in 10.0 mi WSW 4.6 mph - N/A   Mostly Cloudy
3:15 AM 82.4 °F 89.5 °F 75.2 °F 79% 29.94 in 10.0 mi Calm Calm - N/A   Mostly Cloudy
3:35 AM 82.4 °F 89.8 °F 75.7 °F 80% 29.95 in 10.0 mi Calm Calm - N/A   Overcast
3:55 AM 81.3 °F 88.3 °F 76.3 °F 85% 29.95 in 10.0 mi Calm Calm - N/A   Scattered Clouds
4:15 AM 81.3 °F 88.0 °F 76.1 °F 84% 29.95 in 10.0 mi Calm Calm - N/A   Clear
4:35 AM 81.5 °F 88.5 °F 76.3 °F 84% 29.95 in 10.0 mi Calm Calm - N/A   Scattered Clouds
4:55 AM 80.6 °F 86.8 °F 76.3 °F 87% 29.95 in 10.0 mi Calm Calm - N/A   Mostly Cloudy
5:15 AM 80.2 °F 86.0 °F 76.5 °F 88% 29.95 in 10.0 mi Calm Calm - N/A   Mostly Cloudy
5:35 AM 80.1 °F 85.8 °F 76.8 °F 90% 29.96 in 10.0 mi Calm Calm - N/A   Scattered Clouds
5:55 AM 79.7 °F - 76.5 °F 90% 29.98 in 10.0 mi Calm Calm - N/A   Scattered Clouds
6:15 AM 79.7 °F - 76.8 °F 91% 29.98 in 10.0 mi Calm Calm - N/A   Mostly Cloudy
6:35 AM 78.8 °F - 76.1 °F 91% 29.98 in 7.0 mi NNW 4.6 mph - N/A   Scattered Clouds
6:55 AM 79.0 °F - 76.5 °F 92% 29.98 in 7.0 mi Calm Calm - N/A   Scattered Clouds
7:35 AM 81.5 °F 90.2 °F 78.6 °F 91% 29.97 in 10.0 mi Calm Calm - N/A   Clear
7:55 AM 82.9 °F 92.4 °F 77.5 °F 84% 29.98 in 10.0 mi NW 5.8 mph - N/A   Clear
8:15 AM 84.2 °F 93.4 °F 76.3 °F 77% 29.98 in 10.0 mi NW 5.8 mph - N/A   Clear
8:35 AM 85.1 °F 94.5 °F 75.9 °F 74% 29.98 in 10.0 mi NW 6.9 mph - N/A   Clear
8:55 AM 85.8 °F 95.9 °F 76.1 °F 73% 29.99 in 10.0 mi NNW 6.9 mph - N/A   Clear
9:15 AM 86.0 °F 95.5 °F 75.6 °F 71% 30.00 in 10.0 mi Calm Calm - N/A   Scattered Clouds
9:35 AM 86.7 °F 95.9 °F 74.8 °F 68% 30.01 in 10.0 mi NNW 3.5 mph - N/A   Scattered Clouds
9:55 AM 86.9 °F 95.4 °F 74.1 °F 66% 30.01 in 10.0 mi Calm Calm - N/A   Mostly Cloudy
10:15 AM 87.6 °F 95.2 °F 73.0 °F 62% 30.01 in 10.0 mi Calm Calm - N/A   Mostly Cloudy
10:35 AM 89.8 °F 98.6 °F 73.8 °F 59% 30.00 in 10.0 mi Calm Calm - N/A   Scattered Clouds
10:55 AM 89.8 °F 97.5 °F 72.5 °F 57% 30.00 in 10.0 mi NW 3.5 mph - N/A   Clear
11:15 AM 90.9 °F 97.8 °F 71.6 °F 53% 30.00 in 10.0 mi Calm Calm - N/A   Scattered Clouds
11:35 AM 91.8 °F 97.5 °F 70.3 °F 49% 29.99 in 10.0 mi West 4.6 mph - N/A   Clear
11:55 AM 92.1 °F 98.3 °F 70.2 °F 49% 30.00 in 10.0 mi Calm Calm - N/A   Scattered Clouds
12:15 PM 91.6 °F 96.7 °F 69.1 °F 48% 30.00 in 10.0 mi SSW 3.5 mph - N/A   Mostly Cloudy
12:35 PM 92.7 °F 97.7 °F 69.3 °F 46% 29.99 in 10.0 mi WSW 3.5 mph - N/A   Mostly Cloudy
12:55 PM 91.4 °F 94.9 °F 67.5 °F 45% 29.99 in 10.0 mi Calm Calm - N/A   Mostly Cloudy
1:15 PM 91.8 °F 96.0 °F 68.4 °F 46% 29.99 in 10.0 mi NW 4.6 mph - N/A   Overcast
1:35 PM 94.3 °F 97.7 °F 66.7 °F 40% 29.98 in 10.0 mi Calm Calm - N/A   Scattered Clouds
1:55 PM 94.1 °F 97.9 °F 66.9 °F 41% 29.98 in 10.0 mi Calm Calm - N/A   Scattered Clouds
2:15 PM 94.5 °F 98.5 °F 67.5 °F 41% 29.97 in 10.0 mi Calm Calm - N/A   Mostly Cloudy
2:35 PM 95.5 °F 99.4 °F 66.7 °F 39% 29.96 in 10.0 mi Calm Calm - N/A   Scattered Clouds
2:55 PM 96.1 °F 100.5 °F 67.1 °F 39% 29.96 in 10.0 mi West 4.6 mph - N/A   Mostly Cloudy
3:15 PM 96.8 °F 100.7 °F 66.9 °F 37% 29.96 in 10.0 mi Calm Calm - N/A   Mostly Cloudy
3:35 PM 93.4 °F 100.3 °F 71.2 °F 48% 29.96 in 10.0 mi South 15.0 mph 18.4 mph N/A   Mostly Cloudy
3:55 PM 89.8 °F 95.1 °F 70.2 °F 52% 29.95 in 10.0 mi South 11.5 mph - N/A   Overcast
4:15 PM 93.2 °F 99.4 °F 70.0 °F 47% 29.95 in 10.0 mi SSW 12.7 mph - N/A   Scattered Clouds
4:35 PM 91.0 °F 98.2 °F 72.0 °F 53% 29.95 in 10.0 mi SSW 10.4 mph - N/A Rain Light Rain
4:55 PM 91.6 °F 97.7 °F 70.7 °F 50% 29.95 in 10.0 mi SSW 9.2 mph - N/A   Scattered Clouds
5:15 PM 91.4 °F 95.8 °F 68.5 °F 47% 29.95 in 10.0 mi SSW 9.2 mph - N/A   Clear
5:35 PM 91.4 °F 97.8 °F 70.7 °F 51% 29.95 in 10.0 mi SW 10.4 mph - N/A   Clear
5:55 PM 89.6 °F 95.2 °F 70.3 °F 53% 29.94 in 10.0 mi WSW 9.2 mph - N/A   Clear
6:15 PM 90.7 °F 95.4 °F 69.1 °F 49% 29.95 in 10.0 mi SW 8.1 mph - N/A   Clear
6:35 PM 89.6 °F 95.2 °F 70.3 °F 53% 29.95 in 10.0 mi SW 8.1 mph - N/A   Clear
6:55 PM 89.1 °F 94.1 °F 70.0 °F 53% 29.95 in 10.0 mi SW 6.9 mph - N/A   Clear
7:15 PM 88.5 °F 94.4 °F 71.1 °F 56% 29.95 in 10.0 mi WSW 4.6 mph - N/A   Clear
7:35 PM 87.8 °F 93.4 °F 71.1 °F 57% 29.95 in 10.0 mi SW 4.6 mph - N/A   Clear
7:55 PM 86.5 °F 92.5 °F 71.6 °F 61% 29.96 in 10.0 mi SW 4.6 mph - N/A   Clear
8:15 PM 85.6 °F 91.5 °F 71.6 °F 63% 29.97 in 10.0 mi SW 4.6 mph - N/A   Clear
8:35 PM 85.1 °F 91.5 °F 72.7 °F 66% 29.97 in 10.0 mi SSW 4.6 mph - N/A   Clear
8:55 PM 84.4 °F 91.3 °F 73.8 °F 70% 29.98 in 10.0 mi SW 4.6 mph - N/A   Clear
9:15 PM 83.8 °F 91.1 °F 74.5 °F 73% 29.99 in 10.0 mi Calm Calm - N/A   Clear
9:35 PM 83.7 °F 91.0 °F 74.7 °F 74% 29.99 in 10.0 mi SSW 3.5 mph - N/A   Clear
9:55 PM 83.3 °F 90.8 °F 75.2 °F 76% 30.00 in 10.0 mi South 3.5 mph - N/A   Clear
10:15 PM 82.2 °F 89.1 °F 75.2 °F 79% 30.00 in 10.0 mi Calm Calm - N/A   Clear
10:35 PM 81.5 °F 88.5 °F 76.1 °F 84% 30.01 in 10.0 mi Calm Calm - N/A   Clear
10:55 PM 81.5 °F 88.5 °F 76.1 °F 84% 30.02 in 10.0 mi SSE 3.5 mph - N/A   Clear
11:15 PM 81.1 °F 87.8 °F 76.1 °F 85% 30.02 in 10.0 mi Calm Calm - N/A   Clear
11:35 PM 81.0 °F 87.5 °F 76.3 °F 86% 30.02 in 10.0 mi South 3.5 mph - N/A   Clear
11:55 PM 80.6 °F 86.6 °F 75.9 °F 86% 30.02 in 10.0 mi Calm Calm - N/A   Clear